Location: Dattensoll
(49.9928°N, 9.8954°E)
Time: 05:15:10
(UTC+00:00)

Cosmos 2237 Rocket - Pass Details

Date: 19 May 2025
Orbit: 834 x 849 km, 71.0° (Epoch: 14 June)

Event Time Altitude Azimuth Distance (km) Brightness Sun altitude
Rises 23:40:50 0° 333° (NNW) 3,400 6.3 -19.8°
Reaches altitude 10° 23:43:42 10° 346° (NNW) 2,464 5.7 -19.8°
Maximum altitude 23:48:25 26° 43° (NE) 1,594 4.2 -19.7°
Drops below altitude 10° 23:53:07 10° 99° (E) 2,462 4.6 -19.6°
Sets 23:55:57 0° 112° (ESE) 3,396 5.2 -19.5°
